Hourly Data Report for April 08, 2004

SHERBROOKE A
QUEBEC

45°26'00.000" N
71°41'00.000" W
241.40 m
7028124
71610
YSC

Download Data

Hourly Data (April 2004)
Hourly Data Report for April 8, 2004
TIME
LST
Temp Definition
°C
Dew Point Definition
°C
Rel Hum Definition
%
Precip. Amount Definition
mm

Wind Dir Definition
10's deg

Wind Spd Definition
km/h
Visibility Definition
km
Stn Press Definition
kPa
Hmdx Definition


Wind Chill Definition


Weather Definition


00:00 -0.4 -6.2 65   22 7 15.0 97.40   -3  
01:00 -0.2 -6.4 63   21 9 15.0 97.41   -3  
02:00 -0.7 -6.3 66   21 7 15.0 97.43   -3  
03:00 -1.4 -6.3 69   21 7 15.0 97.44   -4  
04:00 -1.9 -6.0 74   21 9 15.0 97.45   -5  
05:00 -2.0 -5.8 75   22 6 15.0 97.47   -4  
06:00 -1.5 -5.7 73   21 7 15.0 97.50   -4 Snow
07:00 0.1 -5.3 67   23 9 24.1 97.51     Clear
08:00 2.2 -5.7 56   24 20 24.1 97.50     Clear
09:00 3.6 -6.6 47   26 19 24.1 97.51     Clear
10:00 5.1 -5.6 46   25 19 24.1 97.51     Clear
11:00 5.8 -8.0 36   26 22 24.1 97.48     Clear
12:00 6.7 -8.4 33   25 20 24.1 97.42     Clear
13:00 7.5 -6.5 36   27 15 24.1 97.38     Mainly Clear
14:00 8.4 -5.5 37   29 19 24.1 97.33     Mainly Clear
15:00 8.3 -6.3 35   24 17 24.1 97.32     Mainly Clear
16:00 8.3 -3.8 42   28 24 24.1 97.35     Mostly Cloudy
17:00 7.1 -3.8 46   28 15 15.0 97.36      
18:00 6.0 -3.1 52   29 15 15.0 97.36      
19:00 5.0 -2.5 58   27 9 15.0 97.40      
20:00 4.3 -3.1 59   24 7 15.0 97.46      
21:00 3.3 -3.1 63   24 9 15.0 97.48      
22:00 1.7 -3.2 70   21 7 15.0 97.49      
23:00 1.4 -3.2 71   21 6 15.0 97.49      

Notes on Data Quality.

Legend

  • E = Estimated
  • M = Missing
  • NA = Not Available*
  • [empty] = Indicates an unobserved value
Date modified: